GW5381 Weather Reports


Display with metric or nautical units.
time (UTC)temp
F
wind
direction
speed
MPH
gust
MPH
rain 1hr
in
rain 24hr
in
rain mn
in
humidity
%
barometer
mb
20260504140835 60 117 0.0 2.0 0.00 0.00 0.00 65 1010.3
20260504140330 60 106 2.0 6.0 0.00 0.00 0.00 65 1010.4
20260504130759 57 119 0.0 6.0 0.00 0.00 0.00 69 1011.1
20260504130255 56 143 1.0 3.0 0.00 0.00 0.00 67 1011.2
20260504120219 56 97 0.0 4.0 0.00 0.00 0.00 66 1011.2
20260504110647 55 111 1.0 3.0 0.00 0.00 0.00 64 1010.9
20260504110143 55 148 1.0 2.0 0.00 0.00 0.00 63 1010.8
20260504100609 51 143 0.0 1.0 0.00 0.00 0.00 67 1011.2
20260504100107 51 145 1.0 1.0 0.00 0.00 0.00 68 1011.1
20260504082003 52 157 1.0 6.0 0.00 0.00 0.00 62 1011.7
20260504081500 52 7 3.0 6.0 0.00 0.00 0.00 62 1011.8
20260504080954 52 154 2.0 4.0 0.00 0.00 0.00 60 1011.8
20260504080452 52 159 1.0 3.0 0.00 0.00 0.00 60 1011.6
20260504050305 55 152 1.0 2.0 0.00 0.00 0.00 54 1013.5
20260504045802 55 138 0.0 3.0 0.00 0.00 0.00 54 1013.4
20260504045304 55 214 1.0 2.0 0.00 0.00 0.00 53 1013.3
20260504044800 55 221 2.0 3.0 0.00 0.00 0.00 53 1013.4
20260504044257 55 101 1.0 3.0 0.00 0.00 0.00 54 1013.4
20260504043754 55 151 2.0 2.0 0.00 0.00 0.00 53 1013.3
20260504043251 55 126 1.0 3.0 0.00 0.00 0.00 53 1013.5
20260504042749 55 263 4.0 6.0 0.00 0.00 0.00 53 1013.5
20260504042245 54 226 2.0 3.0 0.00 0.00 0.00 53 1013.7
20260504041742 55 185 2.0 6.0 0.00 0.00 0.00 53 1013.7
20260504041238 55 275 5.0 6.0 0.00 0.00 0.00 52 1013.7
20260504040734 55 173 0.0 2.0 0.00 0.00 0.00 53 1013.9
20260504040232 54 192 1.0 4.0 0.00 0.00 0.00 53 1013.9
20260504035727 54 134 1.0 2.0 0.00 0.00 0.00 54 1013.8
20260504035225 54 139 1.0 2.0 0.00 0.00 0.00 54 1014.2
20260504034722 54 152 1.0 2.0 0.00 0.00 0.00 54 1014.0
20260504034219 54 129 1.0 2.0 0.00 0.00 0.00 55 1014.3
20260504033717 54 69 2.0 3.0 0.00 0.00 0.00 55 1014.2
20260504033214 54 124 1.0 1.0 0.00 0.00 0.00 56 1014.2
20260504032711 54 146 1.0 3.0 0.00 0.00 0.00 56 1014.3
20260504032208 54 129 1.0 2.0 0.00 0.00 0.00 56 1014.2
20260504031705 54 114 1.0 2.0 0.00 0.00 0.00 56 1014.1
20260504031202 54 148 1.0 2.0 0.00 0.00 0.00 57 1014.1
20260504030658 54 290 2.0 4.0 0.00 0.00 0.00 56 1014.3
20260504030155 54 189 2.0 3.0 0.00 0.00 0.00 56 1014.1
20260504025651 55 189 1.0 6.0 0.00 0.00 0.00 56 1014.3
20260504025148 55 157 1.0 3.0 0.00 0.00 0.00 56 1014.3
20260504024646 55 299 2.0 3.0 0.00 0.00 0.00 55 1014.3
20260504024142 55 135 1.0 3.0 0.00 0.00 0.00 54 1014.3
20260504023639 55 150 1.0 2.0 0.00 0.00 0.00 54 1014.4
20260504023135 55 114 1.0 3.0 0.00 0.00 0.00 55 1014.4
20260504022631 55 188 2.0 2.0 0.00 0.00 0.00 54 1014.4
20260504022127 55 132 0.0 1.0 0.00 0.00 0.00 55 1014.4
20260504021626 55 146 1.0 3.0 0.00 0.00 0.00 54 1013.9
20260504021121 55 150 0.0 2.0 0.00 0.00 0.00 55 1014.1
20260504020619 55 116 0.0 3.0 0.00 0.00 0.00 54 1014.2
20260504020115 55 272 4.0 7.0 0.00 0.00 0.00 53 1014.2
20260504015612 55 130 0.0 3.0 0.00 0.00 0.00 54 1014.3
20260504015108 55 173 2.0 3.0 0.00 0.00 0.00 54 1014.2
20260504014604 55 154 1.0 3.0 0.00 0.00 0.00 55 1013.9
20260504014101 55 250 2.0 3.0 0.00 0.00 0.00 54 1014.3
20260504013558 55 129 0.0 3.0 0.00 0.00 0.00 55 1014.0
20260504013055 55 158 1.0 2.0 0.00 0.00 0.00 55 1013.9
20260504012553 55 168 1.0 1.0 0.00 0.00 0.00 56 1013.8
20260504012051 55 135 0.0 1.0 0.00 0.00 0.00 59 1014.0
20260504011547 56 309 3.0 3.0 0.00 0.00 0.00 56 1013.9
20260504011043 57 137 1.0 2.0 0.00 0.00 0.00 51 1013.9
20260504010539 57 140 1.0 3.0 0.00 0.00 0.00 49 1014.2
20260504010035 58 123 1.0 2.0 0.00 0.00 0.00 49 1014.2
20260504005532 58 145 1.0 2.0 0.00 0.00 0.00 45 1014.4
20260504005030 58 112 0.0 2.0 0.00 0.00 0.00 44 1014.3
20260504004527 58 140 1.0 2.0 0.00 0.00 0.00 44 1014.3
20260504004024 58 110 0.0 1.0 0.00 0.00 0.00 44 1014.2
20260504003520 58 287 3.0 4.0 0.00 0.00 0.00 42 1014.1
20260504003017 59 127 1.0 3.0 0.00 0.00 0.00 42 1014.0
20260504002514 59 99 2.0 3.0 0.00 0.00 0.00 41 1014.1
20260504002012 59 155 2.0 2.0 0.00 0.00 0.00 41 1013.9
20260504001509 59 125 1.0 3.0 0.00 0.00 0.00 41 1013.9
20260504001005 59 134 0.0 3.0 0.00 0.00 0.00 41 1013.7
20260504000503 59 178 1.0 2.0 0.00 0.00 0.00 40 1013.7
20260503235959 59 155 2.0 3.0 0.00 0.00 0.00 40 1013.5
20260503235458 59 103 1.0 3.0 0.00 0.00 0.00 40 1013.9
20260503234954 59 124 1.0 3.0 0.00 0.00 0.00 40 1013.8
20260503234452 60 125 0.0 3.0 0.00 0.00 0.00 40 1013.9
20260503233950 60 105 2.0 2.0 0.00 0.00 0.00 38 1013.7
20260503233446 60 290 1.0 4.0 0.00 0.00 0.00 39 1013.9
20260503232942 60 185 2.0 2.0 0.00 0.00 0.00 38 1014.0
20260503232439 60 223 2.0 4.0 0.00 0.00 0.00 39 1014.2
20260503231937 60 239 1.0 2.0 0.00 0.00 0.00 39 1014.2
20260503231435 60 268 3.0 6.0 0.00 0.00 0.00 38 1014.4
20260503230931 60 121 0.0 0.0 0.00 0.00 0.00 41 1014.4
20260503230427 60 128 2.0 6.0 0.00 0.00 0.00 38 1014.4
20260503225925 60 179 1.0 2.0 0.00 0.00 0.00 37 1014.7
20260503225422 60 272 2.0 8.0 0.00 0.00 0.00 37 1014.6
20260503224917 60 135 1.0 4.0 0.00 0.00 0.00 37 1014.9
20260503224415 60 169 2.0 3.0 0.00 0.00 0.00 37 1015.0
20260503223912 61 168 1.0 3.0 0.00 0.00 0.00 38 1014.9
20260503223410 61 117 1.0 4.0 0.00 0.00 0.00 38 1014.9
20260503222910 61 267 3.0 8.0 0.00 0.00 0.00 37 1014.9
20260503222409 63 288 2.0 9.0 0.00 0.00 0.00 35 1015.1
20260503221907 63 152 1.0 3.0 0.00 0.00 0.00 39 1015.0
20260503221405 64 207 3.0 6.0 0.00 0.00 0.00 35 1015.5
20260503220901 63 107 0.0 2.0 0.00 0.00 0.00 43 1015.3
20260503220358 63 111 2.0 4.0 0.00 0.00 0.00 35 1015.3
20260503215855 62 119 0.0 4.0 0.00 0.00 0.00 38 1015.5
20260503215352 62 357 4.0 7.0 0.00 0.00 0.00 37 1015.8
20260503214849 62 115 0.0 4.0 0.00 0.00 0.00 38 1015.5
20260503214347 62 98 2.0 8.0 0.00 0.00 0.00 34 1015.5
20260503213844 63 117 1.0 3.0 0.00 0.00 0.00 34 1015.4
20260503213342 65 278 4.0 4.0 0.00 0.00 0.00 34 1015.5
20260503212838 65 129 2.0 4.0 0.00 0.00 0.00 33 1015.7
20260503212336 65 134 0.0 4.0 0.00 0.00 0.00 34 1015.7
20260503211833 64 104 2.0 2.0 0.00 0.00 0.00 34 1015.9
20260503211330 63 168 2.0 7.0 0.00 0.00 0.00 34 1016.0
20260503210825 62 231 1.0 3.0 0.00 0.00 0.00 35 1016.0
20260503210323 62 176 1.0 2.0 0.00 0.00 0.00 36 1016.0
20260503205817 61 103 1.0 3.0 0.00 0.00 0.00 36 1016.2
20260503205314 61 108 1.0 4.0 0.00 0.00 0.00 36 1016.2
20260503204811 62 95 1.0 6.0 0.00 0.00 0.00 36 1016.0
20260503204309 62 326 1.0 6.0 0.00 0.00 0.00 38 1016.1
20260503203806 62 296 4.0 8.0 0.00 0.00 0.00 35 1015.8
20260503203303 63 115 2.0 7.0 0.00 0.00 0.00 34 1016.0
20260503202800 64 112 0.0 4.0 0.00 0.00 0.00 35 1016.0
20260503202258 64 107 0.0 7.0 0.00 0.00 0.00 36 1016.1
20260503201755 64 156 1.0 7.0 0.00 0.00 0.00 33 1016.2
20260503201253 64 141 3.0 7.0 0.00 0.00 0.00 35 1016.4
20260503200750 64 121 1.0 4.0 0.00 0.00 0.00 35 1016.3
20260503200245 63 128 1.0 4.0 0.00 0.00 0.00 33 1016.4
20260503195743 62 277 2.0 8.0 0.00 0.00 0.00 36 1016.6
20260503195239 61 62 3.0 4.0 0.00 0.00 0.00 35 1016.5
20260503194737 61 106 1.0 3.0 0.00 0.00 0.00 34 1016.9
20260503194232 62 90 2.0 14.0 0.00 0.00 0.00 36 1016.8
20260503193729 63 81 4.0 7.0 0.00 0.00 0.00 35 1016.9
20260503193225 63 111 1.0 4.0 0.00 0.00 0.00 35 1017.1
20260503192721 63 97 2.0 2.0 0.00 0.00 0.00 32 1017.3
20260503192216 65 333 4.0 10.0 0.00 0.00 0.00 32 1017.3
20260503191713 64 342 3.0 6.0 0.00 0.00 0.00 35 1017.3
20260503191211 65 264 5.0 6.0 0.00 0.00 0.00 31 1017.5
20260503190707 65 221 0.0 3.0 0.00 0.00 0.00 38 1017.7
20260503190204 65 108 0.0 4.0 0.00 0.00 0.00 35 1017.5
20260503185701 64 103 2.0 7.0 0.00 0.00 0.00 35 1017.5
20260503185156 64 269 1.0 6.0 0.00 0.00 0.00 37 1017.7
20260503184651 62 131 1.0 3.0 0.00 0.00 0.00 36 1017.9
20260503184147 62 119 2.0 3.0 0.00 0.00 0.00 35 1018.0
20260503183643 62 110 2.0 2.0 0.00 0.00 0.00 35 1018.1
20260503183141 62 291 3.0 7.0 0.00 0.00 0.00 34 1018.2
20260503182640 62 112 1.0 2.0 0.00 0.00 0.00 36 1018.0
20260503182139 62 332 2.0 9.0 0.00 0.00 0.00 36 1018.2
20260503181635 64 213 2.0 2.0 0.00 0.00 0.00 35 1018.3
20260503181131 63 72 2.0 8.0 0.00 0.00 0.00 35 1018.5
20260503180628 64 110 3.0 8.0 0.00 0.00 0.00 33 1018.5
20260503180126 63 135 5.0 7.0 0.00 0.00 0.00 34 1018.5
20260503175623 63 90 1.0 3.0 0.00 0.00 0.00 36 1018.4
20260503175120 62 117 1.0 7.0 0.00 0.00 0.00 38 1018.5
20260503174616 63 292 5.0 11.0 0.00 0.00 0.00 36 1018.7
20260503174114 62 85 0.0 4.0 0.00 0.00 0.00 39 1018.8
20260503173609 63 115 1.0 3.0 0.00 0.00 0.00 37 1018.8
20260503173105 62 324 6.0 9.0 0.00 0.00 0.00 35 1018.7
20260503172602 61 150 1.0 3.0 0.00 0.00 0.00 42 1018.9
20260503172100 61 203 4.0 7.0 0.00 0.00 0.00 37 1019.3
20260503171556 61 118 2.0 10.0 0.00 0.00 0.00 38 1019.3
20260503171053 61 110 5.0 11.0 0.00 0.00 0.00 34 1019.3
20260503170549 60 136 1.0 2.0 0.00 0.00 0.00 38 1019.3
20260503150942 54 127 0.0 4.0 0.00 0.00 0.00 45 1020.6
20260503150439 54 108 3.0 4.0 0.00 0.00 0.00 44 1020.7